Погода в Лозовом

Украина / Хмельницкая область     49°17′37″N   27°18′04″E
темп.,
°C
ветер,
м/с
пор.,
м/с
влажн.,
%
обл.,
%
осадки,
мм/ч
давл.,
гПа
погр.,
м
28 февраля, вс
вс2823:00+2ссз6119799 0.8 1026622
02:00+1сз7119799 1.1 1026775
05:00+1ссз71295100 0.3 1027837
08:000сз71086100 0.5 1028918
11:00+1сз71079100 0.1 1028899
14:00+3сз7107094 0.1 1027845
17:00+3сз6116798 0.0 1025946
20:00+2зсз6138999 0.4 1024895
1 марта, пн
пн123:00+2сз71297100 2.2 1023710
02:00+2ссз5997100 3.4 1024519
05:00+1с61096100 0.8 1026657
08:00+1ссв5997100 1.1 1029542
11:00+1с5895100 0.2 1031509
14:00+4с457288 0.3 1032877
17:00+3ссз357896 0.1 1032528
20:00+1сз368592 0.1 1034159
2 марта, вт
вт223:00+2зсз3786100 0.0 1034284
02:00+1зсз378693 0.0 1034234
05:000з4108923 0.0 1032287
08:00+1зсз5129250 0.0 1031385
11:00+5зсз7117684 0.0 1029652
14:00+9зсз8125942 0.0 1027961
17:00+7сз713660 0.0 1026905
20:00+5сз716800 0.0 1027703
3 марта, ср
ср323:00+3сз715860 0.0 1028572
02:00+2сз511935 0.0 1029366
05:00+1сз4109640 0.0 1029289
08:00+1ссз579667 0.0 1030367
11:00+2ссз3589100 0.0 1031411
14:00+6сз456473 0.0 1029650
17:00+6зсз24660 0.0 1028556
20:00+3ссз11790 0.0 102822
4 марта, чт
чт423:00+2ююз23827 0.0 102723
02:00+1ююз36914 0.0 102594
05:00+1ююз36940 0.0 1023112
08:00+2ююз47910 0.0 1021186
11:00+7юз467433 0.0 1018367
14:00+10зюз465549 0.0 1016849
17:00+9зюз366114 0.0 1014240
20:00+5юз357116 0.0 101391